Overview Statistics Trail Chart Weather Telemetry Raw packets
 

This is the latest recevied weather packets stored in our database for station/object WD7OO. If no packets are shown the sender has not sent any weather packets the latest 10 day(s).

<< 48 49 50 51 52 53 54 >>
Time Temp. Humidity Pressure Rain* Wind** Luminosity Snow
1788298026 32.78° C 71% 1015.5 hPa 0 mm - 312 W/m² -
1788297723 32.78° C 73% 1015.4 hPa 0 mm - 334 W/m² -
1788297423 32.78° C 74% 1015.6 hPa 0 mm - 353 W/m² -
1788297119 32.78° C 73% 1015.5 hPa 0 mm - 312 W/m² -
1788296814 32.78° C 73% 1015.6 hPa 0 mm - 245 W/m² -
1788296510 32.78° C 75% 1015.8 hPa 0 mm - 449 W/m² -
1788296205 32.78° C 74% 1015.8 hPa 0 mm - 224 W/m² -
1788295900 32.78° C 74% 1015.8 hPa 0 mm - 338 W/m² -
1788295596 32.78° C 73% 1015.7 hPa 0 mm - 237 W/m² -
1788295291 33.33° C 73% 1015.7 hPa 0 mm - 219 W/m² -
1788294985 33.33° C 74% 1015.7 hPa 0 mm - 369 W/m² -
1788294680 32.78° C 74% 1015.5 hPa 0 mm - 410 W/m² -
1788294380 32.78° C 74% 1015.5 hPa 0 mm - 200 W/m² -
1788294076 32.78° C 75% 1015.9 hPa 0 mm - 203 W/m² -
1788293772 32.78° C 73% 1015.7 hPa 0 mm - 424 W/m² -
1788293471 33.33° C 73% 1015.8 hPa 0 mm - 491 W/m² -
1788293170 33.89° C 75% 1016 hPa 0 mm - 505 W/m² -
1788292865 33.89° C 74% 1015.8 hPa 0 mm - 254 W/m² -
1788292582 34.44° C 70% 1016 hPa 0 mm - 520 W/m² -
1788292263 33.89° C 73% 1015.9 hPa 0 mm - 498 W/m² -
1788291958 34.44° C 71% 1016 hPa 0 mm - 498 W/m² -
1788291654 33.89° C 71% 1016 hPa 0 mm - 528 W/m² -
1788291349 34.44° C 70% 1016.2 hPa 0 mm - 571 W/m² -
1788291043 33.89° C 69% 1016.2 hPa 0 mm - 596 W/m² -
1788290738 34.44° C 66% 1016.2 hPa 0 mm - 651 W/m² -

* Rain latest hour (hover to see other rain measurements)
** Current wind speed in m/s (hover to see current wind gust speed)